Theta_e
330 330 328 326 325 325 325 323 324 324 324 324 323 323 321 323 324 324 324 324 324 324 324 325 325 325 324 325 324 320 322 323 322 323 322 321 321 323 322 321 322 320
331 329 328 328 325 325 325 325 325 324 324 324 323 322 323 324 323 323 322 322 322 322 322 323 324 323 323 323 323 321 321 322 320 320 322 321 320 321 321 321 321 320
331 331 329 326 325 326 325 326 326 325 323 323 324 323 324 325 324 324 323 322 321 321 322 322 322 322 322 322 322 321 320 319 319 319 320 319 320 320 321 321 320 320
331 331 329 326 326 326 326 325 324 324 325 323 323 324 324 324 325 324 323 322 321 321 322 322 322 321 320 321 321 320 320 319 319 320 319 320 320 319 320 321 321 320
332 330 330 326 327 328 327 324 324 323 323 323 324 324 323 325 324 322 323 323 322 320 321 321 322 322 321 321 320 319 320 319 320 319 318 318 320 321 321 321 321 320
331 330 330 326 325 326 325 324 324 323 323 323 324 323 323 323 322 321 323 322 322 321 321 321 321 322 322 321 322 321 320 319 320 320 318 318 319 320 318 320 320 319
331 330 330 328 324 324 322 324 326 325 326 325 323 323 323 322 321 321 321 322 321 321 321 322 322 322 323 323 322 320 320 321 320 318 316 315 316 319 319 319 316 316
330 331 331 329 326 324 323 325 325 324 326 325 324 323 323 320 319 321 322 321 321 321 321 321 322 323 323 323 320 321 321 321 320 318 318 318 318 316 317 317 319 317
330 329 330 328 328 325 323 326 324 322 322 323 325 322 322 321 320 321 321 321 322 322 321 321 322 322 325 324 322 322 321 322 321 320 319 319 318 317 316 317 317 317
331 332 331 330 330 326 325 327 325 323 323 324 325 324 321 322 322 321 321 321 321 322 322 322 322 324 324 323 323 322 321 321 322 322 321 320 319 317 316 317 319 318
329 330 330 330 329 328 325 326 325 326 324 324 325 324 324 324 323 322 322 322 323 322 322 322 323 323 324 324 325 325 324 323 322 322 323 322 321 321 321 319 319 319
328 328 330 329 329 328 328 324 324 326 325 324 324 322 324 325 323 324 323 323 323 322 323 323 323 324 324 324 324 325 326 325 325 325 324 323 323 323 320 322 322 320
328 328 329 330 328 328 329 329 324 323 324 323 325 324 324 324 324 323 324 323 323 323 324 324 324 325 326 328 328 325 326 326 326 325 325 325 325 324 324 323 323 323
328 329 329 328 327 327 327 328 328 324 323 323 323 323 324 323 323 323 324 324 324 324 325 325 325 325 326 327 328 328 327 325 325 325 324 324 325 324 326 325 325 325
328 328 328 328 326 326 326 326 326 328 327 325 325 324 325 324 323 323 323 323 324 326 326 326 326 326 326 326 326 324 327 327 327 325 325 324 325 324 325 326 326 326
327 328 328 327 327 326 326 327 327 327 327 327 328 328 325 324 322 323 323 324 324 326 325 326 327 327 316 304 307 326 327 326 327 327 325 325 325 325 326 326 326 326
326 326 325 325 326 326 326 327 326 327 326 326 326 326 323 323 327 325 326 326 325 323 323 325 327 325 300 301 303 299 320 327 326 326 325 325 324 322 323 323 325 325
326 325 325 325 325 324 325 325 326 325 325 323 323 323 323 324 324 324 324 323 322 322 322 322 323 301 299 300 299 298 300 321 325 325 324 322 318 320 319 322 323 324
325 324 325 324 325 325 325 325 324 324 323 323 322 322 324 324 323 324 323 323 323 322 324 323 320 296 296 295 298 296 295 303 322 323 322 319 319 315 317 317 319 322
324 324 324 325 325 324 324 323 323 322 323 323 323 322 320 320 322 324 321 322 322 323 321 320 318 295 295 294 296 294 294 298 323 324 322 321 318 319 320 319 319 318
322 323 324 325 325 324 325 322 322 322 322 323 323 321 320 321 324 325 324 324 324 321 319 319 315 289 292 291 292 292 293 294 323 324 322 321 320 319 319 319 319 319
314 315 318 320 321 322 322 323 323 322 321 324 324 323 324 325 322 325 323 323 322 321 317 316 312 289 291 291 292 292 291 310 323 319 318 317 318 319 318 319 319 319
312 312 313 314 315 316 317 319 320 323 325 325 323 323 323 323 321 322 323 322 320 319 317 316 314 295 290 291 292 292 295 320 318 317 316 316 317 318 318 321 318 319
312 311 312 312 312 313 314 316 318 320 322 323 323 323 323 321 321 321 321 319 318 317 317 315 314 302 290 292 293 292 301 319 316 314 315 315 316 317 318 315 309 301
312 312 311 312 312 313 315 315 316 316 317 319 319 318 318 318 318 317 316 317 317 317 312 313 313 305 289 292 291 293 298 317 314 312 314 314 315 315 317 315 310 303
312 312 312 312 312 313 315 314 315 316 316 317 316 315 315 315 315 315 315 314 315 315 313 312 311 314 305 290 293 293 292 311 319 314 313 314 313 315 315 314 311 307
Wind_Speed
5 4 5 6 6 6 6 6 6 7 6 6 7 6 6 6 6 6 6 6 6 6 6 5 5 5 5 5 6 6 6 6 6 6 6 7 7 7 7 7 6 5
5 6 5 5 5 6 6 6 6 6 7 7 7 7 7 6 6 6 6 6 6 6 5 5 5 5 5 5 5 6 6 6 6 5 6 7 6 6 6 7 6 5
6 6 5 5 6 7 7 6 6 6 6 7 8 7 7 6 6 6 6 6 6 6 5 5 5 5 5 5 5 6 6 6 6 6 6 6 5 5 6 6 5 6
7 5 6 5 6 7 7 6 6 5 5 7 8 8 7 6 6 7 6 6 6 5 5 4 5 5 6 6 5 5 6 6 6 5 5 5 5 6 6 6 6 6
7 5 5 6 7 7 7 7 7 6 6 6 8 8 8 7 7 7 6 6 6 6 5 5 5 5 4 5 6 5 5 5 5 5 5 5 5 5 5 5 5 6
5 5 7 8 8 7 7 8 7 7 7 7 7 7 8 9 8 7 7 7 6 6 6 5 5 4 4 4 4 4 5 5 4 4 5 5 4 4 4 4 5 6
8 9 10 8 9 9 8 8 6 6 6 6 7 7 7 8 8 9 8 7 7 7 6 6 5 5 4 4 4 4 4 4 4 5 5 5 5 4 4 4 5 5
9 7 8 7 9 9 8 8 7 7 6 6 6 7 7 8 9 8 8 8 8 7 7 6 6 5 5 4 5 5 4 3 3 3 5 4 3 4 4 3 3 5
9 9 8 8 9 9 9 8 8 8 7 7 6 8 8 8 9 8 9 9 8 8 8 7 6 6 4 5 5 5 5 4 3 4 4 4 3 3 4 4 3 3
8 8 9 9 9 7 9 9 8 8 8 8 7 7 8 8 9 9 9 9 8 8 8 7 7 6 6 5 6 5 5 5 4 4 4 4 3 3 4 3 3 3
8 8 8 9 8 7 9 9 9 8 8 9 8 8 8 8 8 8 9 9 8 9 8 8 8 7 7 6 5 5 5 5 5 5 4 4 4 2 2 2 3 2
8 8 8 9 8 7 8 9 9 9 9 8 8 8 8 8 8 8 8 8 8 8 8 8 8 8 8 7 7 6 5 5 4 5 4 4 4 4 6 3 3 4
8 9 7 6 8 8 7 8 10 9 9 9 8 9 9 8 8 8 7 8 7 6 7 7 7 7 7 7 7 7 7 5 5 6 6 3 4 6 6 6 6 5
8 5 7 7 7 8 8 6 4 7 8 8 9 10 9 9 9 9 7 8 8 7 8 7 7 6 6 6 6 7 6 8 8 7 7 8 7 7 7 7 7 6
7 8 6 6 7 7 7 7 7 6 7 8 8 9 8 9 9 9 9 9 9 9 9 8 7 7 5 4 5 8 6 7 8 8 8 8 8 8 8 8 7 6
5 5 5 6 6 6 5 6 6 6 5 3 3 4 5 7 7 8 9 9 8 10 7 6 5 4 6 6 4 3 5 6 7 8 6 9 9 9 8 6 7 6
4 5 7 5 3 4 5 6 5 4 4 1 3 5 3 7 8 7 7 6 2 7 8 7 6 2 8 5 1 4 3 7 7 8 8 5 6 9 7 8 5 5
4 3 2 6 7 6 5 5 4 5 4 3 6 7 5 6 9 6 4 3 3 9 7 8 3 3 4 3 2 4 5 5 7 5 4 3 5 9 7 7 1 4
4 3 3 3 2 3 4 2 2 3 3 4 5 6 4 4 4 5 2 4 5 9 10 6 2 2 2 3 2 4 6 5 5 5 5 2 4 6 4 5 8 5
3 3 3 3 3 3 4 4 3 3 3 4 4 2 4 8 9 9 4 7 6 6 8 4 2 1 1 3 3 5 6 3 5 4 5 4 5 7 10 11 6 5
3 4 2 2 2 2 3 5 4 2 5 6 7 6 8 8 6 5 6 6 5 2 4 0 1 4 3 2 3 5 6 5 6 6 9 10 8 6 3 3 3 1
4 3 2 2 1 1 2 3 6 7 8 5 3 6 7 6 7 6 7 6 3 4 5 6 4 5 5 6 5 7 4 5 6 5 4 5 5 3 3 3 2 2
6 3 3 3 1 1 2 2 2 3 3 4 6 7 5 4 4 5 5 5 7 8 9 9 6 7 7 7 7 7 5 5 6 5 4 3 4 4 2 6 6 6
4 5 4 2 2 3 3 1 2 2 4 4 4 4 5 5 5 6 6 6 8 7 7 7 7 6 9 8 9 9 7 6 5 6 3 3 3 2 5 6 7 11
5 5 5 5 5 4 3 2 3 4 3 4 4 4 4 5 6 5 6 7 7 9 6 6 6 5 7 7 7 8 7 6 7 5 4 4 4 3 4 6 6 9
4 4 4 5 6 5 4 5 4 4 5 4 5 6 6 6 8 7 8 7 7 6 7 7 7 6 7 8 10 10 10 5 7 3 4 4 3 5 5 5 6 5
Wind_Direction
153 186 168 171 167 154 156 151 151 154 144 136 132 129 123 114 112 108 100 91 85 85 87 86 84 86 85 68 61 68 68 65 68 60 61 66 57 52 52 51 37 41
186 182 181 176 158 157 151 152 154 150 142 140 130 126 125 127 124 118 116 113 104 93 91 94 90 87 86 84 76 76 76 69 66 69 69 62 70 65 59 52 41 47
192 182 178 181 160 156 150 150 148 145 146 136 129 130 131 133 128 126 120 110 109 105 98 93 98 101 101 98 91 86 86 79 76 73 71 69 63 69 62 49 54 45
175 188 178 175 160 154 150 147 145 148 137 142 144 137 140 140 135 127 122 121 121 117 108 101 97 93 96 100 98 91 84 83 85 86 83 78 75 71 60 61 50 53
165 175 190 168 162 156 151 152 155 149 155 160 145 149 145 143 143 137 135 130 123 124 122 116 110 108 105 97 101 103 103 96 85 77 79 83 73 64 67 66 60 64
162 170 200 177 163 161 159 156 162 159 164 166 153 152 151 150 149 148 145 146 139 128 135 132 128 119 108 108 105 102 107 99 96 105 98 92 87 80 90 91 86 73
170 187 199 173 164 163 167 165 166 162 164 164 161 157 160 161 154 157 157 154 149 150 140 141 135 130 126 123 109 97 94 107 116 112 108 89 97 104 82 67 74 86
182 192 181 173 168 168 175 169 166 164 164 167 173 161 172 172 161 159 162 161 158 157 149 146 151 140 146 132 120 119 111 106 123 103 83 86 71 77 75 71 50 57
173 188 173 186 180 176 177 169 163 166 170 178 183 171 182 178 166 166 168 166 164 162 162 155 155 150 151 147 137 147 141 126 122 120 121 131 140 135 128 99 89 95
178 175 180 178 180 184 177 165 165 169 181 187 190 178 184 180 165 176 171 171 170 169 163 166 156 159 161 163 163 157 158 153 146 144 159 168 162 173 128 166 126 123
187 177 178 178 185 193 180 172 171 177 183 192 180 189 184 176 172 182 177 174 176 176 169 173 167 168 170 166 162 173 172 165 171 162 170 180 175 160 126 172 162 189
184 180 177 179 182 192 190 184 181 184 181 192 182 187 182 182 187 183 186 180 182 189 183 180 182 177 175 178 169 179 172 177 187 166 186 191 181 193 183 183 180 194
181 176 165 181 182 181 193 198 191 192 184 192 185 195 182 192 194 190 191 198 187 218 195 190 192 186 189 180 177 179 186 171 196 198 194 216 202 203 204 188 191 195
151 177 170 186 185 182 181 191 234 210 198 199 197 203 195 200 197 201 193 219 181 222 219 201 199 190 194 185 201 190 185 194 210 209 211 208 215 218 208 202 203 202
178 161 187 196 193 184 188 190 195 213 218 220 211 211 206 204 206 208 207 209 216 203 211 203 199 193 204 198 216 226 206 216 218 217 224 226 214 216 212 209 207 199
178 169 180 191 188 185 193 198 194 211 216 248 292 276 231 222 226 223 219 217 219 212 213 205 190 194 87 75 33 4 243 233 228 229 237 239 228 220 210 212 198 198
161 156 177 188 200 192 212 209 203 213 207 188 357 336 322 319 289 222 224 237 259 2 312 331 307 56 96 67 50 342 312 249 243 232 231 262 294 252 228 212 198 205
136 142 158 158 166 187 187 206 194 202 169 177 191 224 236 226 239 239 253 252 217 218 210 216 208 336 107 89 10 314 304 286 264 259 253 35 326 324 11 310 297 223
133 125 120 129 166 172 163 147 173 166 187 194 216 232 260 286 289 262 254 270 256 241 212 139 170 116 93 126 236 273 282 294 259 352 34 149 177 186 238 250 240 218
112 124 141 143 161 191 157 187 193 198 207 223 204 212 243 245 236 230 244 253 263 288 353 11 168 189 126 170 218 249 264 263 240 204 210 218 198 205 203 204 195 185
122 121 128 133 162 183 175 165 213 233 239 226 217 200 225 224 240 245 234 229 216 163 158 172 329 138 159 172 229 229 245 246 242 203 203 203 199 184 166 137 128 90
47 54 76 148 166 169 219 203 198 204 212 198 211 215 213 209 219 214 218 197 217 176 130 204 183 182 170 193 189 220 212 231 232 226 218 181 162 146 181 141 138 124
9 15 48 315 354 251 226 215 189 205 214 197 205 225 212 187 187 216 201 191 179 179 177 169 162 183 189 186 201 204 204 236 230 215 203 181 147 173 138 64 38 11
359 341 347 347 289 278 261 222 230 217 210 197 209 193 202 189 194 207 204 186 190 186 187 165 159 160 183 192 202 196 219 245 226 216 178 182 142 176 101 89 55 31
348 344 331 324 312 306 333 300 262 256 236 194 195 207 202 186 187 182 191 195 189 206 139 160 156 160 195 201 212 216 226 245 236 203 163 197 167 165 130 107 88 52
349 325 329 319 310 331 318 297 276 243 227 210 214 226 211 207 198 204 194 198 186 166 157 182 159 164 179 211 214 227 233 280 276 193 176 172 215 164 164 130 111 98